Flag for U.S.A. Weather past 2 weeks in Warren, Michigan, U.S.A.

Now
54 °F

Passing clouds.


Feels Like: 53 °F
Forecast: 54 / 67 °F
Wind: 6 mph from North

Location: Detroit City Airport

Current Time: Oct 1, 2014 at 2:25:48 AM

Latest Report: Oct 1, 2014 at 12:53 AM


Visibility: 10 mi

Pressure: 30.03 "Hg

Humidity: 80%

Dew point: 48 °F

Location of WarrenLocation

Historic Weather in Warren — Graph

°F

Warren temperature yesterday

Maximum temperature yesterday: 63 °F (at 12:53 AM)
Minimum temperature yesterday: 52 °F (at 8:53 PM)
Average temperature yesterday: 56 °F

Past Weeks' High & Low Weather Summary

 TemperatureHumidityPressure
High80 °F (Sep 20, 2:53 PM)100% (Sep 26, 6:53 AM)30.45 "Hg (Sep 26, 6:53 AM)
Low45 °F (Sep 19, 5:53 AM)35% (Sep 17, 4:53 PM)29.60 "Hg (Sep 21, 6:53 AM)
Average61 °F69%30.14 "Hg
* Reported Sep 16 12:53 AM — Oct 1 12:53 AM, Warren, Weather by CustomWeather, © 2014

Note: Actual official high and low records may vary slightly from our data, if they occured in-between our weather recording intervals... More about our weather records

Advertising

Warren weather history for previous 24 hours

 ConditionsComfort  
Time TempWeatherWind HumidityBarometerVisibility
12:53 AM
Oct 1
54 °FPassing clouds.6 mph80%30.03 "Hg10 mi
11:53 PM
Sep 30
54 °FPassing clouds.6 mph80%30.03 "Hg10 mi
11:00 PM54 °FPassing clouds.6 mph80%30.03 "Hg10 mi
9:53 PM54 °FMostly cloudy.6 mph80%30.03 "Hg10 mi
8:53 PM52 °FOvercast.7 mph80%30.01 "Hg10 mi
7:53 PM54 °FOvercast.9 mph80%30.01 "Hg10 mi
6:53 PM57 °FOvercast.7 mph78%29.98 "Hg7 mi
5:53 PM57 °FOvercast.7 mph78%29.98 "Hg7 mi
4:53 PM57 °FOvercast.8 mph72%29.98 "Hg10 mi
3:53 PM57 °FOvercast.8 mph72%29.98 "Hg10 mi
2:53 PM57 °FMostly cloudy.6 mph78%29.97 "Hg10 mi
1:53 PM57 °FMostly cloudy.8 mph78%29.99 "Hg10 mi
12:53 PM59 °FMostly cloudy.9 mph72%29.97 "Hg10 mi
9:53 AM54 °FOvercast.8 mph86%29.95 "Hg10 mi
8:53 AM54 °FOvercast.8 mph86%29.95 "Hg10 mi
7:53 AM54 °FOvercast.7 mph86%29.95 "Hg10 mi
6:53 AM55 °FMostly cloudy.8 mph90%29.92 "Hg10 mi
5:53 AM55 °FMostly cloudy.8 mph90%29.91 "Hg10 mi
4:00 AMN/ALight rain.N/AN/AN/AN/A
2:53 AM63 °FRain. Mostly cloudy.5 mph93%29.88 "Hg7 mi
Weather by CustomWeather, © 2014

See weather overviewHow to use our weather pages